Location: Unspecified
(0.0000°N, 0.0000°E)
Time: 03:36:26
(UTC+00:00)

deb r/b Ablestar - Visible Passes

Search period start: 14 February 2026 00:00
Search period end: 24 February 2026 00:00
Orbit: 905 x 2193 km, 67.6° (Epoch: 10 February)

Date Brightness Start Highest point End Pass type
(mag) Time Alt. Az. Time Alt. Az. Time Alt. Az.
14 Feb ? 20:20:07 10° SSW 20:28:32 56° WNW 20:30:59 39° NNW visible
15 Feb ? 19:44:07 10° SSW 19:52:56 89° WNW 19:57:08 27° NNE visible
16 Feb ? 19:08:33 10° S 19:17:13 59° ESE 19:23:21 12° NNE visible
16 Feb ? 21:14:07 10° W 21:16:35 12° WNW 21:18:55 10° WNW visible
17 Feb ? 05:48:31 10° NE 05:54:14 18° ENE 06:00:42 10° ESE visible
17 Feb ? 18:33:25 10° S 18:41:21 37° ESE 18:47:36 10° NE visible
17 Feb ? 20:35:20 10° WSW 20:41:07 22° WNW 20:46:03 10° NNW visible
18 Feb ? 19:58:15 10° SW 20:05:39 36° WNW 20:11:37 10° N visible
19 Feb ? 19:21:50 10° SSW 19:30:09 59° WNW 19:36:35 10° N visible
20 Feb ? 18:45:55 10° SSW 18:54:32 87° ESE 19:01:07 10° NNE visible
21 Feb ? 05:23:58 10° NNE 05:31:28 27° ENE 05:40:23 10° SE visible
21 Feb ? 20:15:21 10° W 20:18:13 12° WNW 20:20:53 10° NW visible
22 Feb ? 04:50:22 10° NE 04:55:58 17° ENE 05:02:15 10° ESE visible
22 Feb ? 19:36:54 10° SW 19:42:45 23° WNW 19:47:44 10° NNW visible
23 Feb ? 18:59:55 10° SW 19:07:17 38° WNW 19:13:13 10° N visible
